カタログに戻る

CZ-6A R/B

運用中SSO
NORAD 52152·ROCKET BODY·🇨🇳 China

打ち上げ Mar 29, 2022 から Taiyuan Satellite Launch Center

Loading…

次のパス (今後24時間)

TLE

最新Source: Space-Track

元期: Sep 14, 2026, 02:12 UTC

1 52152U 22031C   26257.09223438  .00001105  00000-0  75588-4 0  9990
2 52152  97.7925 104.2561 0015813 267.0934  92.8484 15.08184614244704

AllMySatでCZ-6A R/Bをリアルタイム追跡

Download on the App Store